Location: Unspecified
(0.0000°N, 0.0000°E)
Time: 20:44:03
(UTC+00:00)

Vanguard 1 Rocket - Pass Details

Date: 21 March 2018
Orbit: 649 x 4227 km, 34.3° (Epoch: 16 November)

Event Time Altitude Azimuth Distance (km) Brightness Sun altitude
Rises 00:37:10 0° 300° (WNW) 6,762 - -82.5°
Reaches altitude 10° 00:41:01 10° 298° (WNW) 6,110 - -81.6°
Maximum altitude 01:03:03 71° 218° (SW) 4,309 - -76.1°
Exits shadow 01:17:51 36° 145° (SE) 5,414 11.1 -72.4°
Drops below altitude 10° 01:28:42 10° 135° (SE) 6,866 11.9 -69.7°
Sets 01:33:26 0° 133° (SE) 7,577 12.3 -68.5°
